Location: ?????
(55.8833°N, 37.6500°E)
Time: 09:35:49
(UTC+00:00)

Cosmos 1066 Rocket - Pass Details

Date: 27 February 2020
Orbit: 799 x 894 km, 81.2° (Epoch: 09 April)

Event Time Altitude Azimuth Distance (km) Brightness Sun altitude
Rises 17:50:17 0° 345° (NNW) 3,471 7.9 -24.5°
Reaches altitude 10° 17:52:43 10° 345° (NNW) 2,541 7.1 -24.8°
Maximum altitude 17:58:32 87° 257° (WSW) 897 4.2 -25.5°
Enters shadow 18:00:02 53° 172° (S) 1,088 4.5 -25.7°
